Time,TemperatureF,DewpointF,PressureIn,WindDirection,WindDirectionDegrees,WindSpeedMPH,WindSpeedGustMPH,Humidity,HourlyPrecipIn,Conditions,Clouds,dailyrainin,SoftwareType,DateUTC
2013-04-19 00:06:00,46.4,36.0,30.18,North,11,5.0,5.0,67,0.00,,,0.00,weatherlink.com 1.10,2013-04-19 05:06:00,
2013-04-19 00:21:00,46.1,36.0,30.19,NNE,16,3.0,5.0,67,0.00,,,0.00,weatherlink.com 1.10,2013-04-19 05:21:00,
2013-04-19 00:36:00,45.6,36.0,30.19,North,4,2.0,5.0,69,0.00,,,0.00,weatherlink.com 1.10,2013-04-19 05:36:00,
2013-04-19 00:51:00,45.2,36.0,30.19,NNW,347,3.0,4.0,70,0.00,,,0.00,weatherlink.com 1.10,2013-04-19 05:51:00,
2013-04-19 01:06:00,45.0,36.0,30.19,NNW,345,2.0,6.0,70,0.00,,,0.00,weatherlink.com 1.10,2013-04-19 06:06:00,
2013-04-19 01:21:00,45.0,35.0,30.19,North,356,3.0,7.0,69,0.00,,,0.00,weatherlink.com 1.10,2013-04-19 06:21:00,
2013-04-19 01:36:00,44.6,35.0,30.19,NW,324,2.0,6.0,69,0.00,,,0.00,weatherlink.com 1.10,2013-04-19 06:36:00,
2013-04-19 01:51:00,44.3,35.0,30.18,NW,318,2.0,4.0,70,0.00,,,0.00,weatherlink.com 1.10,2013-04-19 06:51:00,
2013-04-19 02:07:00,43.9,35.0,30.18,NNE,18,5.0,5.0,70,0.00,,,0.00,weatherlink.com 1.10,2013-04-19 07:07:00,
2013-04-19 02:22:00,43.7,35.0,30.18,NW,318,2.0,5.0,72,0.00,,,0.00,weatherlink.com 1.10,2013-04-19 07:22:00,
2013-04-19 02:37:00,43.1,35.0,30.18,NW,305,3.0,6.0,73,0.00,,,0.00,weatherlink.com 1.10,2013-04-19 07:37:00,
2013-04-19 02:52:00,42.8,35.0,30.18,NW,325,2.0,7.0,73,0.00,,,0.00,weatherlink.com 1.10,2013-04-19 07:52:00,
2013-04-19 03:07:00,42.4,34.0,30.19,NW,318,5.0,8.0,73,0.00,,,0.00,weatherlink.com 1.10,2013-04-19 08:07:00,
2013-04-19 03:22:00,42.3,34.0,30.19,NNW,339,5.0,7.0,73,0.00,,,0.00,weatherlink.com 1.10,2013-04-19 08:22:00,
2013-04-19 03:37:00,41.9,34.0,30.20,NW,311,6.0,7.0,73,0.00,,,0.00,weatherlink.com 1.10,2013-04-19 08:37:00,
2013-04-19 03:52:00,41.6,34.0,30.20,NNW,347,2.0,5.0,73,0.00,,,0.00,weatherlink.com 1.10,2013-04-19 08:52:00,
2013-04-19 04:07:00,41.4,33.0,30.20,NW,326,4.0,6.0,73,0.00,,,0.00,weatherlink.com 1.10,2013-04-19 09:07:00,
2013-04-19 04:22:00,41.5,33.0,30.21,NNW,335,4.0,5.0,72,0.00,,,0.00,weatherlink.com 1.10,2013-04-19 09:22:00,
2013-04-19 04:37:00,41.5,33.0,30.22,NW,319,3.0,7.0,71,0.00,,,0.00,weatherlink.com 1.10,2013-04-19 09:37:00,
2013-04-19 04:52:00,41.2,33.0,30.23,NW,313,5.0,7.0,72,0.00,,,0.00,weatherlink.com 1.10,2013-04-19 09:52:00,
2013-04-19 05:07:00,41.3,33.0,30.23,NW,305,2.0,6.0,71,0.00,,,0.00,weatherlink.com 1.10,2013-04-19 10:07:00,
2013-04-19 05:22:00,41.1,33.0,30.25,WNW,302,2.0,4.0,72,0.00,,,0.00,weatherlink.com 1.10,2013-04-19 10:22:00,
2013-04-19 05:37:00,40.8,33.0,30.25,WNW,293,3.0,4.0,74,0.00,,,0.00,weatherlink.com 1.10,2013-04-19 10:37:00,
2013-04-19 05:52:00,40.4,33.0,30.26,WNW,291,2.0,5.0,75,0.00,,,0.00,weatherlink.com 1.10,2013-04-19 10:52:00,
2013-04-19 06:07:00,40.3,33.0,30.26,NW,311,3.0,5.0,75,0.00,,,0.00,weatherlink.com 1.10,2013-04-19 11:07:00,
2013-04-19 06:22:00,40.3,33.0,30.27,NW,311,2.0,5.0,76,0.00,,,0.00,weatherlink.com 1.10,2013-04-19 11:22:00,
2013-04-19 06:37:00,40.3,33.0,30.27,WNW,301,2.0,4.0,76,0.00,,,0.00,weatherlink.com 1.10,2013-04-19 11:37:00,
2013-04-19 06:52:00,40.5,34.0,30.27,NW,304,3.0,7.0,77,0.00,,,0.00,weatherlink.com 1.10,2013-04-19 11:52:00,
2013-04-19 07:07:00,40.6,34.0,30.28,West,278,3.0,8.0,77,0.00,,,0.00,weatherlink.com 1.10,2013-04-19 12:07:00,
2013-04-19 07:22:00,40.8,34.0,30.29,WNW,298,2.0,6.0,76,0.00,,,0.00,weatherlink.com 1.10,2013-04-19 12:22:00,
2013-04-19 07:37:00,41.4,33.0,30.29,WNW,303,4.0,7.0,73,0.00,,,0.00,weatherlink.com 1.10,2013-04-19 12:37:00,
2013-04-19 07:52:00,42.5,32.0,30.29,NW,325,4.0,6.0,66,0.00,,,0.00,weatherlink.com 1.10,2013-04-19 12:52:00,
2013-04-19 08:07:00,43.5,31.0,30.29,NW,316,4.0,12.0,62,0.00,,,0.00,weatherlink.com 1.10,2013-04-19 13:07:00,
2013-04-19 08:22:00,44.1,31.0,30.30,NNW,338,9.0,11.0,60,0.00,,,0.00,weatherlink.com 1.10,2013-04-19 13:22:00,
2013-04-19 08:37:00,44.7,31.0,30.30,NNW,342,8.0,13.0,59,0.00,,,0.00,weatherlink.com 1.10,2013-04-19 13:37:00,
2013-04-19 08:53:00,45.2,29.0,30.31,NW,323,6.0,14.0,54,0.00,,,0.00,weatherlink.com 1.10,2013-04-19 13:53:00,
2013-04-19 09:08:00,46.2,29.0,30.31,NW,309,7.0,12.0,51,0.00,,,0.00,weatherlink.com 1.10,2013-04-19 14:08:00,
2013-04-19 09:23:00,46.7,27.0,30.31,NNW,328,5.0,19.0,46,0.00,,,0.00,weatherlink.com 1.10,2013-04-19 14:23:00,
2013-04-19 09:38:00,46.9,25.0,30.31,NNW,345,14.0,17.0,43,0.00,,,0.00,weatherlink.com 1.10,2013-04-19 14:38:00,
2013-04-19 09:53:00,47.6,25.0,30.32,NNE,23,11.0,16.0,41,0.00,,,0.00,weatherlink.com 1.10,2013-04-19 14:53:00,
2013-04-19 10:08:00,48.2,25.0,30.32,NNE,25,10.0,14.0,40,0.00,,,0.00,weatherlink.com 1.10,2013-04-19 15:08:00,
2013-04-19 10:23:00,48.5,26.0,30.32,NNE,27,14.0,15.0,41,0.00,,,0.00,weatherlink.com 1.10,2013-04-19 15:23:00,
2013-04-19 10:38:00,49.4,25.0,30.33,NW,311,6.0,16.0,39,0.00,,,0.00,weatherlink.com 1.10,2013-04-19 15:38:00,
2013-04-19 10:53:00,49.5,26.0,30.33,NNW,340,5.0,14.0,40,0.00,,,0.00,weatherlink.com 1.10,2013-04-19 15:53:00,
2013-04-19 11:08:00,50.2,26.0,30.33,NNW,338,8.0,16.0,39,0.00,,,0.00,weatherlink.com 1.10,2013-04-19 16:08:00,
2013-04-19 11:23:00,50.9,26.0,30.33,NW,307,6.0,14.0,38,0.00,,,0.00,weatherlink.com 1.10,2013-04-19 16:23:00,
2013-04-19 11:38:00,51.2,27.0,30.32,NW,325,10.0,13.0,39,0.00,,,0.00,weatherlink.com 1.10,2013-04-19 16:38:00,
2013-04-19 11:53:00,52.1,26.0,30.32,NNE,15,12.0,19.0,37,0.00,,,0.00,weatherlink.com 1.10,2013-04-19 16:53:00,
2013-04-19 12:08:00,52.9,26.0,30.32,NW,312,8.0,16.0,35,0.00,,,0.00,weatherlink.com 1.10,2013-04-19 17:08:00,
2013-04-19 12:23:00,52.8,24.0,30.32,NNE,13,10.0,17.0,33,0.00,,,0.00,weatherlink.com 1.10,2013-04-19 17:23:00,
2013-04-19 12:38:00,54.8,25.0,30.30,NW,325,4.0,12.0,32,0.00,,,0.00,weatherlink.com 1.10,2013-04-19 17:38:00,
2013-04-19 12:53:00,55.0,23.0,30.30,NW,318,8.0,19.0,29,0.00,,,0.00,weatherlink.com 1.10,2013-04-19 17:53:00,
2013-04-19 13:08:00,55.9,25.0,30.29,NW,315,12.0,18.0,31,0.00,,,0.00,weatherlink.com 1.10,2013-04-19 18:08:00,
2013-04-19 13:23:00,56.4,23.0,30.29,NNW,346,7.0,16.0,27,0.00,,,0.00,weatherlink.com 1.10,2013-04-19 18:23:00,
2013-04-19 13:38:00,56.7,25.0,30.28,NNW,340,8.0,14.0,30,0.00,,,0.00,weatherlink.com 1.10,2013-04-19 18:38:00,
2013-04-19 13:53:00,57.6,22.0,30.28,NW,311,8.0,16.0,25,0.00,,,0.00,weatherlink.com 1.10,2013-04-19 18:53:00,
2013-04-19 14:08:00,58.6,23.0,30.27,NNW,330,3.0,14.0,25,0.00,,,0.00,weatherlink.com 1.10,2013-04-19 19:08:00,
2013-04-19 14:23:00,59.1,23.0,30.26,NW,316,17.0,17.0,25,0.00,,,0.00,weatherlink.com 1.10,2013-04-19 19:23:00,
2013-04-19 14:38:00,59.5,24.0,30.26,North,349,4.0,13.0,26,0.00,,,0.00,weatherlink.com 1.10,2013-04-19 19:38:00,
2013-04-19 14:53:00,59.9,24.0,30.26,NNW,338,11.0,13.0,25,0.00,,,0.00,weatherlink.com 1.10,2013-04-19 19:53:00,
2013-04-19 15:09:00,60.5,24.0,30.25,WNW,302,7.0,14.0,25,0.00,,,0.00,weatherlink.com 1.10,2013-04-19 20:09:00,
2013-04-19 15:24:00,60.8,25.0,30.24,NNE,30,3.0,14.0,25,0.00,,,0.00,weatherlink.com 1.10,2013-04-19 20:24:00,
2013-04-19 15:39:00,61.6,24.0,30.23,NW,304,8.0,14.0,24,0.00,,,0.00,weatherlink.com 1.10,2013-04-19 20:39:00,
2013-04-19 15:54:00,61.4,25.0,30.22,NW,321,5.0,14.0,25,0.00,,,0.00,weatherlink.com 1.10,2013-04-19 20:54:00,
2013-04-19 16:09:00,61.8,24.0,30.21,NW,321,6.0,12.0,24,0.00,,,0.00,weatherlink.com 1.10,2013-04-19 21:09:00,
2013-04-19 16:24:00,62.0,24.0,30.21,WNW,288,1.0,12.0,23,0.00,,,0.00,weatherlink.com 1.10,2013-04-19 21:24:00,
2013-04-19 16:39:00,62.7,23.0,30.20,WNW,293,3.0,18.0,22,0.00,,,0.00,weatherlink.com 1.10,2013-04-19 21:39:00,
2013-04-19 16:54:00,63.2,25.0,30.20,NW,314,7.0,14.0,23,0.00,,,0.00,weatherlink.com 1.10,2013-04-19 21:54:00,
2013-04-19 17:09:00,62.9,25.0,30.20,NNE,29,4.0,11.0,24,0.00,,,0.00,weatherlink.com 1.10,2013-04-19 22:09:00,
2013-04-19 17:24:00,63.4,26.0,30.19,NW,316,8.0,11.0,24,0.00,,,0.00,weatherlink.com 1.10,2013-04-19 22:24:00,
2013-04-19 17:39:00,63.4,26.0,30.19,NNE,13,4.0,9.0,24,0.00,,,0.00,weatherlink.com 1.10,2013-04-19 22:39:00,
2013-04-19 17:54:00,63.5,26.0,30.19,NNW,328,5.0,13.0,24,0.00,,,0.00,weatherlink.com 1.10,2013-04-19 22:54:00,
2013-04-19 18:09:00,63.4,26.0,30.18,NW,323,5.0,14.0,24,0.00,,,0.00,weatherlink.com 1.10,2013-04-19 23:09:00,
2013-04-19 18:24:00,63.5,26.0,30.18,NNW,331,8.0,8.0,24,0.00,,,0.00,weatherlink.com 1.10,2013-04-19 23:24:00,
2013-04-19 18:39:00,63.2,26.0,30.18,NNW,345,2.0,8.0,24,0.00,,,0.00,weatherlink.com 1.10,2013-04-19 23:39:00,
2013-04-19 18:54:00,63.4,26.0,30.18,NW,316,3.0,8.0,24,0.00,,,0.00,weatherlink.com 1.10,2013-04-19 23:54:00,
2013-04-19 19:09:00,63.4,27.0,30.18,WNW,301,2.0,8.0,25,0.00,,,0.00,weatherlink.com 1.10,2013-04-20 00:09:00,
2013-04-19 19:24:00,62.8,25.0,30.18,NNW,330,1.0,7.0,24,0.00,,,0.00,weatherlink.com 1.10,2013-04-20 00:24:00,
2013-04-19 19:39:00,62.8,27.0,30.18,WNW,296,3.0,5.0,26,0.00,,,0.00,weatherlink.com 1.10,2013-04-20 00:39:00,
2013-04-19 19:54:00,61.8,26.0,30.18,NNW,330,2.0,3.0,26,0.00,,,0.00,weatherlink.com 1.10,2013-04-20 00:54:00,
2013-04-19 20:09:00,60.9,27.0,30.18,NNW,328,1.0,3.0,27,0.00,,,0.00,weatherlink.com 1.10,2013-04-20 01:09:00,
2013-04-19 20:24:00,59.7,27.0,30.18,NNW,331,0.0,1.0,29,0.00,,,0.00,weatherlink.com 1.10,2013-04-20 01:24:00,
2013-04-19 20:39:00,58.3,27.0,30.18,NNW,332,0.0,0.0,30,0.00,,,0.00,weatherlink.com 1.10,2013-04-20 01:39:00,
2013-04-19 20:54:00,57.8,29.0,30.19,NNW,332,0.0,0.0,33,0.00,,,0.00,weatherlink.com 1.10,2013-04-20 01:54:00,
2013-04-19 21:09:00,57.4,30.0,30.20,ENE,75,0.0,1.0,35,0.00,,,0.00,weatherlink.com 1.10,2013-04-20 02:09:00,
2013-04-19 21:24:00,57.3,30.0,30.20,East,79,0.0,2.0,35,0.00,,,0.00,weatherlink.com 1.10,2013-04-20 02:24:00,
2013-04-19 21:39:00,56.4,31.0,30.20,SE,146,0.0,3.0,38,0.00,,,0.00,weatherlink.com 1.10,2013-04-20 02:39:00,
2013-04-19 21:54:00,56.3,31.0,30.21,SE,143,2.0,4.0,38,0.00,,,0.00,weatherlink.com 1.10,2013-04-20 02:54:00,
2013-04-19 22:09:00,55.1,39.0,30.21,South,190,2.0,5.0,55,0.00,,,0.00,weatherlink.com 1.10,2013-04-20 03:09:00,
2013-04-19 22:24:00,54.6,39.0,30.21,SSE,163,1.0,5.0,56,0.00,,,0.00,weatherlink.com 1.10,2013-04-20 03:24:00,
2013-04-19 22:39:00,54.2,39.0,30.21,SW,230,3.0,3.0,58,0.00,,,0.00,weatherlink.com 1.10,2013-04-20 03:39:00,
2013-04-19 22:54:00,54.0,39.0,30.21,SW,214,1.0,5.0,57,0.00,,,0.00,weatherlink.com 1.10,2013-04-20 03:54:00,
2013-04-19 23:09:00,53.3,36.0,30.21,SSW,208,2.0,4.0,52,0.00,,,0.00,weatherlink.com 1.10,2013-04-20 04:09:00,
2013-04-19 23:24:00,52.6,37.0,30.22,South,169,5.0,5.0,55,0.00,,,0.00,weatherlink.com 1.10,2013-04-20 04:24:00,
2013-04-19 23:39:00,52.4,36.0,30.22,SSE,153,2.0,6.0,55,0.00,,,0.00,weatherlink.com 1.10,2013-04-20 04:39:00,
2013-04-19 23:54:00,52.4,36.0,30.22,SSW,195,2.0,5.0,53,0.00,,,0.00,weatherlink.com 1.10,2013-04-20 04:54:00,